sat.trackr.live / text

‹ back to catalog

EZIE-B

NORAD 63250 · 2025-052AS

PAYLOAD ACTIVE UNKNOWN

§ Identity

Operator
Country
US
Launch date
2025-03-15
Launch site
AFWTR
Launch vehicle
Mass (kg)
RCS (m²)

External: N2YO · Heavens-Above · Gunter

§ Orbital elements

Epoch: 2026-09-22T22:08:14.733600Z

Period
96.14 min
Inclination
97.6770°
Eccentricity
0.0002279
Mean motion
14.97865139 rev/d
Perigee alt
571.9 km
Apogee alt
575.1 km
Semi-major
6,951.6 km
B*
3.0233e-4
RAAN
156.5496°
Arg perigee
189.6291°
Mean anomaly
170.4888°
Rev number
8,329

§ Raw data

EZIE-B1 63250U 25052AS  26265.92239275  .00003500  00000+0  30233-3 0  99912 63250  97.6770 156.5496 0002279 189.6291 170.4888 14.97865139 83297

JSON: /api/v1/satellites/63250 · /tle

For live sub-satellite position, see the globe view (requires WebGL).

§ Visibility from observer

Set your observer location to see the next 7 days of passes ≥ 10°. The values pass through the URL so the page stays shareable.

No JS? Fill the form by hand. The geolocation button needs JavaScript.

§ Radio — SatNOGS DB

ModeDescriptionDownlinkUplink
FM Mode S - Transmitter 1 2.211 GHz
FM Mode S - Transmitter 2 2.218 GHz
FM Mode S - Transmitter 3 2.268 GHz

3 transmitters · refreshed weekly from db.satnogs.org